BAW641 HEAX-LGAV

Flight info

Callsign BAW641
Flight time 1h 27m
Altitude 36000
Route DCT NOZ L551 ANTAR DCT RIPLI UL995 VARIX DCT
Aircraft A321/M-SDE3FGIJ1KRWXY/SB1

Departure

Time 2026-04-25 09:54
Airport Alexandria International Airport (HEAX)

Arrival

Time 2026-04-25 11:21
Airport Athens Eleftherios Venizelos International Airport (LGAV)
Time Latitude Longitude Altitude Speed Heading
2026-04-25 09:21 30.92710 29.69822 185 ft 0 kts 53°
2026-04-25 09:44 30.92708 29.69818 185 ft 3 kts 53°
2026-04-25 09:44 30.92693 29.69805 193 ft 3 kts 354°
2026-04-25 09:45 30.92681 29.69808 185 ft 0 kts 322°
2026-04-25 09:47 30.92682 29.69807 199 ft 2 kts 322°
2026-04-25 09:47 30.92699 29.69792 183 ft 4 kts 322°
2026-04-25 09:47 30.92725 29.69768 190 ft 6 kts 322°
2026-04-25 09:48 30.92760 29.69736 202 ft 7 kts 320°
2026-04-25 09:48 30.92784 29.69693 184 ft 0 kts 301°
2026-04-25 09:48 30.92791 29.69685 189 ft 3 kts 318°
2026-04-25 09:48 30.92820 29.69682 185 ft 6 kts 20°
2026-04-25 09:49 30.92826 29.69729 192 ft 8 kts 124°
2026-04-25 09:49 30.92767 29.69735 189 ft 10 kts 187°
2026-04-25 09:49 30.92693 29.69750 193 ft 12 kts 156°
2026-04-25 09:49 30.92623 29.69726 184 ft 12 kts 254°
2026-04-25 09:50 30.92682 29.69639 181 ft 16 kts 323°
2026-04-25 09:50 30.92779 29.69557 175 ft 20 kts 329°
2026-04-25 09:50 30.92909 29.69624 166 ft 22 kts 12°
2026-04-25 09:50 30.93033 29.69546 170 ft 21 kts 323°
2026-04-25 09:51 30.93152 29.69443 170 ft 22 kts 323°
2026-04-25 09:51 30.93251 29.69335 170 ft 13 kts 290°
2026-04-25 09:51 30.93226 29.69231 170 ft 14 kts 235°
2026-04-25 09:51 30.93171 29.69145 174 ft 13 kts 232°
2026-04-25 09:52 30.93121 29.69069 177 ft 11 kts 232°
2026-04-25 09:52 30.93074 29.68997 179 ft 11 kts 232°
2026-04-25 09:52 30.93023 29.68920 181 ft 13 kts 232°
2026-04-25 09:52 30.92968 29.68836 183 ft 13 kts 232°
2026-04-25 09:53 30.92913 29.68752 196 ft 13 kts 232°
2026-04-25 09:53 30.92838 29.68693 184 ft 14 kts 174°
2026-04-25 09:53 30.92739 29.68763 197 ft 27 kts 144°
2026-04-25 09:53 30.92366 29.69089 199 ft 104 kts 142°
2026-04-25 09:54 30.91614 29.69752 189 ft 164 kts 143°
2026-04-25 09:54 30.90642 29.70631 587 ft 181 kts 142°
2026-04-25 09:54 30.89651 29.71527 1288 ft 180 kts 142°
2026-04-25 09:54 30.88821 29.72620 1725 ft 189 kts 112°
2026-04-25 09:55 30.88796 29.74209 1888 ft 213 kts 72°
2026-04-25 09:55 30.89738 29.75574 2007 ft 233 kts 32°
2026-04-25 09:55 30.91384 29.75964 2125 ft 253 kts 351°
2026-04-25 09:55 30.92985 29.75079 2328 ft 269 kts 317°
2026-04-25 09:56 30.94327 29.73529 2688 ft 274 kts 319°
2026-04-25 09:56 30.95959 29.72380 3064 ft 278 kts 341°
2026-04-25 09:56 30.97865 29.72079 3499 ft 278 kts
2026-04-25 09:56 30.99687 29.72754 3906 ft 276 kts 33°
2026-04-25 09:57 31.01079 29.74264 4336 ft 274 kts 59°
2026-04-25 09:57 31.01826 29.76291 4739 ft 272 kts 77°
2026-04-25 09:57 31.02349 29.78420 5126 ft 276 kts 72°
2026-04-25 09:57 31.03219 29.80426 5506 ft 281 kts 57°
2026-04-25 09:58 31.04521 29.82144 5832 ft 287 kts 42°
2026-04-25 09:58 31.06091 29.83583 5893 ft 287 kts 38°
2026-04-25 09:58 31.07666 29.85003 5895 ft 286 kts 39°
2026-04-25 09:58 31.09241 29.86426 5896 ft 285 kts 39°
2026-04-25 09:59 31.10806 29.87847 5896 ft 285 kts 39°
2026-04-25 09:59 31.12372 29.89273 5897 ft 286 kts 39°
2026-04-25 09:59 31.13939 29.90699 5895 ft 285 kts 39°
2026-04-25 09:59 31.15565 29.92021 5895 ft 286 kts 29°
2026-04-25 10:00 31.17413 29.92895 5898 ft 287 kts 15°
2026-04-25 10:00 31.19381 29.93238 5902 ft 288 kts
2026-04-25 10:00 31.21382 29.93005 6244 ft 290 kts 347°
2026-04-25 10:00 31.23266 29.92253 6653 ft 291 kts 333°
2026-04-25 10:01 31.25062 29.91146 7037 ft 292 kts 330°
2026-04-25 10:01 31.26858 29.90026 7433 ft 292 kts 331°
2026-04-25 10:01 31.28651 29.88906 7824 ft 292 kts 330°
2026-04-25 10:01 31.30440 29.87787 8231 ft 292 kts 330°
2026-04-25 10:02 31.32223 29.86672 8630 ft 291 kts 330°
2026-04-25 10:02 31.34012 29.85553 9042 ft 290 kts 330°
2026-04-25 10:02 31.35792 29.84438 9433 ft 289 kts 329°
2026-04-25 10:02 31.37562 29.83331 9833 ft 288 kts 329°
2026-04-25 10:03 31.39326 29.82230 10234 ft 287 kts 329°
2026-04-25 10:03 31.41092 29.81125 10634 ft 288 kts 329°
2026-04-25 10:03 31.42859 29.80019 11036 ft 288 kts 329°
2026-04-25 10:03 31.44623 29.78916 11437 ft 288 kts 329°
2026-04-25 10:04 31.46405 29.77801 11685 ft 295 kts 328°
2026-04-25 10:04 31.48241 29.76644 11822 ft 304 kts 328°
2026-04-25 10:04 31.50123 29.75457 11957 ft 311 kts 328°
2026-04-25 10:04 31.52051 29.74242 12085 ft 318 kts 328°
2026-04-25 10:05 31.54022 29.73001 12214 ft 323 kts 328°
2026-04-25 10:05 31.56018 29.71743 12344 ft 328 kts 328°
2026-04-25 10:05 31.58032 29.70473 12550 ft 328 kts 328°
2026-04-25 10:05 31.59983 29.69252 13353 ft 308 kts 328°
2026-04-25 10:06 31.61824 29.68103 13888 ft 301 kts 328°
2026-04-25 10:06 31.63648 29.66959 14478 ft 290 kts 327°
2026-04-25 10:06 31.65400 29.65858 15193 ft 284 kts 327°
2026-04-25 10:06 31.67172 29.64734 15552 ft 298 kts 326°
2026-04-25 10:07 31.69055 29.63530 15699 ft 318 kts 327°
2026-04-25 10:07 31.71061 29.62250 15836 ft 338 kts 327°
2026-04-25 10:07 31.73183 29.60897 15965 ft 356 kts 327°
2026-04-25 10:07 31.75416 29.59480 16115 ft 373 kts 327°
2026-04-25 10:08 31.77722 29.58025 16488 ft 381 kts 328°
2026-04-25 10:08 31.80073 29.56549 16997 ft 384 kts 328°
2026-04-25 10:08 31.82445 29.55059 17518 ft 388 kts 327°
2026-04-25 10:08 31.84835 29.53553 18012 ft 391 kts 327°
2026-04-25 10:09 31.87233 29.52035 18528 ft 394 kts 327°
2026-04-25 10:09 31.89658 29.50501 19012 ft 396 kts 327°
2026-04-25 10:09 31.92094 29.48958 19483 ft 399 kts 327°
2026-04-25 10:09 31.94514 29.47423 19936 ft 402 kts 327°
2026-04-25 10:10 31.96981 29.45854 20398 ft 404 kts 327°
2026-04-25 10:10 31.99465 29.44270 20847 ft 407 kts 327°
2026-04-25 10:10 32.01966 29.42679 21282 ft 410 kts 327°
2026-04-25 10:10 32.04482 29.41079 21686 ft 413 kts 327°
2026-04-25 10:11 32.07020 29.39463 22096 ft 415 kts 327°
2026-04-25 10:11 32.09570 29.37839 22503 ft 418 kts 327°
2026-04-25 10:11 32.12133 29.36207 22899 ft 420 kts 327°
2026-04-25 10:11 32.14716 29.34561 23307 ft 423 kts 327°
2026-04-25 10:12 32.17311 29.32904 23700 ft 425 kts 327°
2026-04-25 10:12 32.19918 29.31234 24093 ft 428 kts 327°
2026-04-25 10:12 32.25176 29.27861 24826 ft 432 kts 327°
2026-04-25 10:13 32.27821 29.26168 25187 ft 434 kts 327°
2026-04-25 10:13 32.30489 29.24458 25535 ft 437 kts 327°
2026-04-25 10:13 32.33167 29.22738 25880 ft 439 kts 327°
2026-04-25 10:13 32.35860 29.21011 26236 ft 441 kts 327°
2026-04-25 10:14 32.38563 29.19275 26573 ft 443 kts 327°
2026-04-25 10:14 32.41282 29.17527 26915 ft 445 kts 327°
2026-04-25 10:14 32.43977 29.15794 27243 ft 447 kts 327°
2026-04-25 10:14 32.46750 29.14009 27562 ft 449 kts 327°
2026-04-25 10:15 32.49461 29.12261 27873 ft 451 kts 326°
2026-04-25 10:15 32.52225 29.10480 28181 ft 453 kts 326°
2026-04-25 10:15 32.54999 29.08692 28481 ft 455 kts 326°
2026-04-25 10:15 32.57780 29.06894 28775 ft 457 kts 327°
2026-04-25 10:16 32.60577 29.05085 29064 ft 459 kts 326°
2026-04-25 10:16 32.63388 29.03267 29331 ft 461 kts 326°
2026-04-25 10:16 32.66202 29.01449 29572 ft 462 kts 326°
2026-04-25 10:16 32.69030 28.99620 29828 ft 464 kts 326°
2026-04-25 10:17 32.71871 28.97780 30066 ft 465 kts 326°
2026-04-25 10:17 32.74714 28.95935 30292 ft 466 kts 326°
2026-04-25 10:17 32.77549 28.94095 30581 ft 466 kts 326°
2026-04-25 10:17 32.80400 28.92244 30882 ft 465 kts 326°
2026-04-25 10:18 32.83235 28.90401 31182 ft 464 kts 326°
2026-04-25 10:18 32.86065 28.88561 31480 ft 463 kts 326°
2026-04-25 10:18 32.88886 28.86727 31787 ft 462 kts 326°
2026-04-25 10:18 32.91705 28.84894 32070 ft 461 kts 326°
2026-04-25 10:19 32.94491 28.83080 32338 ft 461 kts 326°
2026-04-25 10:19 32.97302 28.81242 32616 ft 460 kts 325°
2026-04-25 10:19 33.00105 28.79408 32910 ft 460 kts 326°
2026-04-25 10:19 33.02905 28.77575 33184 ft 459 kts 325°
2026-04-25 10:20 33.05696 28.75748 33445 ft 458 kts 325°
2026-04-25 10:20 33.08494 28.73919 33697 ft 458 kts 325°
2026-04-25 10:20 33.11282 28.72100 33954 ft 457 kts 325°
2026-04-25 10:20 33.14066 28.70277 34224 ft 456 kts 325°
2026-04-25 10:21 33.16853 28.68447 34436 ft 456 kts 325°
2026-04-25 10:21 33.19622 28.66627 34676 ft 456 kts 325°
2026-04-25 10:21 33.22400 28.64802 34917 ft 455 kts 325°
2026-04-25 10:21 33.25169 28.62983 35150 ft 455 kts 325°
2026-04-25 10:22 33.27939 28.61159 35392 ft 454 kts 325°
2026-04-25 10:22 33.29772 28.59951 35554 ft 454 kts 325°
2026-04-25 10:22 33.33467 28.57518 35850 ft 454 kts 324°
2026-04-25 10:23 33.38985 28.53886 35924 ft 451 kts 325°
2026-04-25 10:23 33.44440 28.50289 35933 ft 451 kts 325°
2026-04-25 10:24 33.49932 28.46659 35935 ft 451 kts 324°
2026-04-25 10:24 33.55428 28.43018 35924 ft 451 kts 324°
2026-04-25 10:25 33.60914 28.39375 35929 ft 452 kts 324°
2026-04-25 10:25 33.65489 28.36330 35930 ft 452 kts 324°
2026-04-25 10:26 33.70993 28.32667 35930 ft 453 kts 324°
2026-04-25 10:26 33.76508 28.28996 35937 ft 453 kts 324°
2026-04-25 10:27 33.81979 28.25245 35938 ft 452 kts 322°
2026-04-25 10:27 33.87227 28.21132 35946 ft 449 kts 319°
2026-04-25 10:28 33.92383 28.16885 35948 ft 450 kts 319°
2026-04-25 10:28 33.97584 28.12669 35950 ft 450 kts 320°
2026-04-25 10:29 34.02811 28.08505 35950 ft 451 kts 320°
2026-04-25 10:29 34.08014 28.04369 35948 ft 451 kts 320°
2026-04-25 10:30 34.13244 28.00194 35946 ft 451 kts 320°
2026-04-25 10:30 34.18474 27.96012 35945 ft 451 kts 320°
2026-04-25 10:31 34.23706 27.91820 35944 ft 451 kts 320°
2026-04-25 10:31 34.28922 27.87618 35943 ft 451 kts 320°
2026-04-25 10:32 34.34152 27.83408 35943 ft 451 kts 320°
2026-04-25 10:32 34.39362 27.79152 35943 ft 450 kts 319°
2026-04-25 10:33 34.44412 27.74690 35941 ft 449 kts 317°
2026-04-25 10:33 34.49408 27.70149 35937 ft 450 kts 317°
2026-04-25 10:34 34.54441 27.65629 35933 ft 451 kts 318°
2026-04-25 10:34 34.59510 27.61128 35933 ft 451 kts 318°
2026-04-25 10:35 34.64580 27.56629 35934 ft 452 kts 319°
2026-04-25 10:35 34.69622 27.52145 35932 ft 452 kts 319°
2026-04-25 10:36 34.74692 27.47605 35938 ft 453 kts 319°
2026-04-25 10:36 34.79764 27.43059 35934 ft 453 kts 319°
2026-04-25 10:37 34.84848 27.38501 35929 ft 454 kts 319°
2026-04-25 10:37 34.89935 27.33930 35931 ft 455 kts 319°
2026-04-25 10:38 34.95025 27.29342 35937 ft 456 kts 319°
2026-04-25 10:38 35.00129 27.24745 35933 ft 456 kts 319°
2026-04-25 10:39 35.05240 27.20144 35933 ft 457 kts 319°
2026-04-25 10:39 35.10354 27.15530 35936 ft 457 kts 319°
2026-04-25 10:40 35.15467 27.10904 35936 ft 458 kts 320°
2026-04-25 10:40 35.20577 27.06272 35939 ft 458 kts 320°
2026-04-25 10:41 35.25699 27.01620 35938 ft 459 kts 320°
2026-04-25 10:41 35.30821 26.96958 35939 ft 459 kts 320°
2026-04-25 10:42 35.35943 26.92295 35937 ft 460 kts 320°
2026-04-25 10:42 35.39655 26.88909 35938 ft 460 kts 320°
2026-04-25 10:43 35.44792 26.84214 35938 ft 460 kts 320°
2026-04-25 10:43 35.49923 26.79509 35936 ft 461 kts 320°
2026-04-25 10:44 35.55065 26.74796 35938 ft 461 kts 320°
2026-04-25 10:44 35.59218 26.70982 35942 ft 462 kts 320°
2026-04-25 10:45 35.64370 26.66249 35943 ft 462 kts 320°
2026-04-25 10:45 35.69524 26.61506 35948 ft 463 kts 320°
2026-04-25 10:46 35.74683 26.56747 35955 ft 464 kts 320°
2026-04-25 10:46 35.79816 26.51998 35962 ft 464 kts 321°
2026-04-25 10:47 35.85014 26.47193 35965 ft 464 kts 321°
2026-04-25 10:47 35.90155 26.42435 35969 ft 465 kts 321°
2026-04-25 10:48 35.95328 26.37631 35971 ft 466 kts 321°
2026-04-25 10:48 36.00509 26.32811 35976 ft 466 kts 321°
2026-04-25 10:49 36.05678 26.27987 35980 ft 466 kts 321°
2026-04-25 10:49 36.10846 26.23160 35983 ft 466 kts 321°
2026-04-25 10:50 36.16019 26.18323 35991 ft 466 kts 321°
2026-04-25 10:50 36.21190 26.13487 35990 ft 466 kts 321°
2026-04-25 10:51 36.26355 26.08647 35994 ft 466 kts 321°
2026-04-25 10:51 36.31493 26.03822 35999 ft 466 kts 321°
2026-04-25 10:52 36.36663 25.98956 36002 ft 466 kts 321°
2026-04-25 10:52 36.41832 25.94084 36005 ft 466 kts 321°
2026-04-25 10:53 36.46994 25.89204 36013 ft 466 kts 321°
2026-04-25 10:53 36.52160 25.84317 36022 ft 466 kts 321°
2026-04-25 10:54 36.57316 25.79433 36032 ft 466 kts 321°
2026-04-25 10:54 36.62464 25.74544 36031 ft 465 kts 321°
2026-04-25 10:55 36.67602 25.69661 36034 ft 464 kts 321°
2026-04-25 10:55 36.72690 25.64815 36029 ft 463 kts 321°
2026-04-25 10:56 36.77812 25.59931 36034 ft 463 kts 321°
2026-04-25 10:56 36.82919 25.55050 36053 ft 463 kts 321°
2026-04-25 10:57 36.88027 25.50161 36056 ft 462 kts 321°
2026-04-25 10:57 36.93126 25.45269 36051 ft 462 kts 321°
2026-04-25 10:58 36.98216 25.40379 36048 ft 461 kts 321°
2026-04-25 10:58 37.03299 25.35489 36034 ft 459 kts 321°
2026-04-25 10:58 37.05830 25.33051 35223 ft 463 kts 321°
2026-04-25 10:59 37.08407 25.30563 34316 ft 468 kts 321°
2026-04-25 10:59 37.10949 25.28107 33468 ft 470 kts 322°
2026-04-25 10:59 37.13545 25.25599 32555 ft 473 kts 322°
2026-04-25 10:59 37.16190 25.23044 31617 ft 474 kts 322°
2026-04-25 11:00 37.18761 25.20555 30985 ft 469 kts 323°
2026-04-25 11:00 37.21354 25.18038 30421 ft 463 kts 323°
2026-04-25 11:00 37.23851 25.15615 29834 ft 458 kts 323°
2026-04-25 11:00 37.26359 25.13178 29260 ft 453 kts 323°
2026-04-25 11:01 37.28835 25.10768 28678 ft 448 kts 323°
2026-04-25 11:01 37.31289 25.08376 28107 ft 443 kts 323°
2026-04-25 11:01 37.33653 25.05914 27537 ft 439 kts 316°
2026-04-25 11:01 37.35647 25.03036 26982 ft 435 kts 306°
2026-04-25 11:02 37.37200 24.99791 26420 ft 431 kts 296°
2026-04-25 11:02 37.38284 24.96291 25883 ft 426 kts 288°
2026-04-25 11:02 37.39211 24.92769 25343 ft 422 kts 288°
2026-04-25 11:02 37.40123 24.89334 24837 ft 417 kts 288°
2026-04-25 11:03 37.41042 24.85885 24323 ft 413 kts 288°
2026-04-25 11:03 37.41964 24.82427 23832 ft 409 kts 288°
2026-04-25 11:03 37.42846 24.79094 23355 ft 405 kts 288°
2026-04-25 11:03 37.43731 24.75740 22884 ft 401 kts 288°
2026-04-25 11:04 37.44603 24.72428 22423 ft 396 kts 288°
2026-04-25 11:04 37.45467 24.69155 21970 ft 392 kts 288°
2026-04-25 11:04 37.46318 24.65921 21519 ft 387 kts 288°
2026-04-25 11:04 37.46874 24.63801 21218 ft 384 kts 288°
2026-04-25 11:05 37.47978 24.59573 20627 ft 377 kts 288°
2026-04-25 11:05 37.48793 24.56455 20168 ft 373 kts 288°
2026-04-25 11:05 37.49600 24.53368 19712 ft 370 kts 288°
2026-04-25 11:05 37.50405 24.50300 19243 ft 367 kts 288°
2026-04-25 11:06 37.51200 24.47260 18778 ft 364 kts 288°
2026-04-25 11:06 37.51986 24.44246 18306 ft 361 kts 288°
2026-04-25 11:06 37.52765 24.41251 17858 ft 357 kts 288°
2026-04-25 11:06 37.53311 24.38227 17127 ft 359 kts 271°
2026-04-25 11:07 37.53259 24.35044 16298 ft 365 kts 265°
2026-04-25 11:07 37.53119 24.31850 15704 ft 364 kts 265°
2026-04-25 11:07 37.52980 24.28689 15170 ft 360 kts 265°
2026-04-25 11:07 37.52847 24.25593 14648 ft 356 kts 265°
2026-04-25 11:08 37.52718 24.22490 14117 ft 353 kts 265°
2026-04-25 11:08 37.52595 24.19425 13599 ft 349 kts 265°
2026-04-25 11:08 37.52475 24.16391 13065 ft 345 kts 265°
2026-04-25 11:08 37.52363 24.13386 12530 ft 342 kts 265°
2026-04-25 11:09 37.52253 24.10418 12000 ft 337 kts 265°
2026-04-25 11:09 37.52152 24.07482 11442 ft 333 kts 265°
2026-04-25 11:09 37.52048 24.04572 10853 ft 331 kts 265°
2026-04-25 11:09 37.51932 24.01678 10321 ft 328 kts 265°
2026-04-25 11:10 37.51812 23.98882 10193 ft 314 kts 265°
2026-04-25 11:10 37.51770 23.97959 10147 ft 309 kts 266°
2026-04-25 11:10 37.51560 23.93600 9722 ft 296 kts 265°
2026-04-25 11:10 37.51429 23.91027 9328 ft 293 kts 265°
2026-04-25 11:11 37.51289 23.88467 8897 ft 293 kts 265°
2026-04-25 11:11 37.51142 23.85899 8455 ft 293 kts 265°
2026-04-25 11:11 37.50988 23.83351 8068 ft 292 kts 265°
2026-04-25 11:11 37.51047 23.80815 7697 ft 288 kts 283°
2026-04-25 11:12 37.51704 23.78520 7558 ft 276 kts 294°
2026-04-25 11:12 37.52645 23.76489 7417 ft 263 kts 312°
2026-04-25 11:12 37.53981 23.75020 7276 ft 251 kts 330°
2026-04-25 11:12 37.55563 23.74159 6986 ft 245 kts 348°
2026-04-25 11:13 37.57240 23.73899 6684 ft 242 kts 359°
2026-04-25 11:13 37.58909 23.73784 6363 ft 239 kts 358°
2026-04-25 11:13 37.60564 23.73660 6034 ft 237 kts 358°
2026-04-25 11:13 37.62204 23.73529 5708 ft 235 kts 358°
2026-04-25 11:14 37.63838 23.73399 5389 ft 233 kts 358°
2026-04-25 11:14 37.65446 23.73270 5091 ft 231 kts 358°
2026-04-25 11:14 37.67040 23.73144 4791 ft 228 kts 358°
2026-04-25 11:14 37.68619 23.73020 4481 ft 225 kts 357°
2026-04-25 11:15 37.70182 23.72903 4169 ft 224 kts 360°
2026-04-25 11:15 37.71691 23.73130 3872 ft 221 kts 15°
2026-04-25 11:15 37.73119 23.73949 3744 ft 236 kts 30°
2026-04-25 11:15 37.74459 23.75114 3611 ft 228 kts 34°
2026-04-25 11:16 37.76849 23.77388 3376 ft 203 kts 34°
2026-04-25 11:16 37.77938 23.78420 3251 ft 186 kts 34°
2026-04-25 11:16 37.78907 23.79338 3140 ft 165 kts 33°
2026-04-25 11:17 37.79806 23.80187 3062 ft 158 kts 32°
2026-04-25 11:17 37.80679 23.81011 3007 ft 154 kts 32°
2026-04-25 11:17 37.81505 23.81793 2880 ft 144 kts 31°
2026-04-25 11:17 37.82290 23.82537 2719 ft 139 kts 30°
2026-04-25 11:18 37.83073 23.83277 2520 ft 142 kts 32°
2026-04-25 11:18 37.83836 23.84000 2356 ft 134 kts 35°
2026-04-25 11:18 37.84573 23.84696 2183 ft 132 kts 36°
2026-04-25 11:18 37.85302 23.85388 2003 ft 131 kts 36°
2026-04-25 11:19 37.85783 23.85844 1878 ft 130 kts 37°
2026-04-25 11:19 37.86507 23.86530 1719 ft 130 kts 37°
2026-04-25 11:19 37.87231 23.87215 1549 ft 130 kts 39°
2026-04-25 11:19 37.87952 23.87899 1371 ft 130 kts 39°
2026-04-25 11:20 37.88670 23.88580 1200 ft 128 kts 39°
2026-04-25 11:20 37.89387 23.89261 1030 ft 130 kts 39°
2026-04-25 11:20 37.90109 23.89947 856 ft 130 kts 38°
2026-04-25 11:20 37.90830 23.90633 681 ft 129 kts 39°
2026-04-25 11:21 37.91555 23.91321 512 ft 130 kts 39°
2026-04-25 11:21 37.92283 23.92012 333 ft 131 kts 38°
2026-04-25 11:21 37.92953 23.92650 296 ft 92 kts 37°
2026-04-25 11:21 37.93250 23.92932 294 ft 34 kts 37°
2026-04-25 11:22 37.93447 23.93125 293 ft 37 kts 38°
2026-04-25 11:22 37.93590 23.93347 292 ft 15 kts 61°
2026-04-25 11:22 37.93630 23.93457 299 ft 10 kts 68°
2026-04-25 11:22 37.93655 23.93534 297 ft 9 kts 68°
2026-04-25 11:23 37.93669 23.93613 300 ft 9 kts 91°
2026-04-25 11:23 37.93667 23.93632 299 ft 0 kts 97°
2026-04-25 11:23 37.93666 23.93637 299 ft 1 kts 101°
2026-04-25 11:24 37.93663 23.93647 299 ft 2 kts 110°
2026-04-25 11:24 37.93656 23.93662 300 ft 2 kts 125°
2026-04-25 11:24 37.93640 23.93679 302 ft 4 kts 149°
2026-04-25 11:24 37.93611 23.93684 302 ft 5 kts 186°
2026-04-25 11:25 37.93574 23.93661 302 ft 7 kts 214°
2026-04-25 11:25 37.93530 23.93618 301 ft 9 kts 218°
2026-04-25 11:25 37.93473 23.93568 300 ft 11 kts 213°
2026-04-25 11:25 37.93396 23.93534 300 ft 13 kts 174°
2026-04-25 11:26 37.93328 23.93607 301 ft 14 kts 128°
2026-04-25 11:26 37.93265 23.93712 301 ft 16 kts 126°
2026-04-25 11:26 37.93197 23.93831 303 ft 18 kts 126°
2026-04-25 11:26 37.93119 23.93960 302 ft 19 kts 128°
2026-04-25 11:27 37.93144 23.94099 303 ft 19 kts 45°
2026-04-25 11:27 37.93253 23.94205 301 ft 21 kts 37°
2026-04-25 11:27 37.93244 23.94353 300 ft 20 kts 128°
2026-04-25 11:27 37.93186 23.94445 302 ft 19 kts 126°
2026-04-25 11:28 37.93171 23.94542 301 ft 10 kts 58°
2026-04-25 11:28 37.93228 23.94603 301 ft 12 kts 39°
2026-04-25 11:28 37.93296 23.94671 301 ft 11 kts 38°
2026-04-25 11:28 37.93363 23.94714 301 ft 11 kts 350°
2026-04-25 11:29 37.93407 23.94660 301 ft 5 kts 309°
2026-04-25 11:29 37.93409 23.94657 300 ft 0 kts 309°